Regional Weather Roundup
Issued by NWS

Home | Current Version | Previous Version | Graphics & Text | Print | Product List | Glossary On
Versions: 1 2 3 4 5 6 7 8 9 10 11 12 13 14 15 16 17 18 19 20 21 22 23 24 25 26 27 28 29 30 31 32 33 34 35 36 37 38 39 40 41 42 43 44 45 46 47 48 49 50
000
ASUS45 KSLC 310310
RWRUT

UTAH REGIONAL WEATHER ROUNDUP
NATIONAL WEATHER SERVICE SALT LAKE CITY UT
800 PM MST FRI JAN 30 2015

UTZ001>011-023>025-310400-

NORTHERN UTAH

CITY           SKY/WX    TMP DP  RH WIND       PRES   REMARKS
BRIGHAM CITY   CLOUDY    48  29  48 W3        30.01R
HILL AFB       CLOUDY    41  31  67 E18G26    29.99S
LOGAN          CLOUDY    38  33  82 CALM      30.03S
OGDEN          CLOUDY    44  34  67 CALM      29.98S
PROVO AIRPORT    N/A     43  34  70 NW10      29.97R
SALT LAKE CITY CLOUDY    40  36  86 W7        29.98F
VERNAL         LGT RAIN  38  37  97 CALM      29.99F FOG
WENDOVER       CLOUDY    43  34  70 N7        30.03R
HEBER CITY     CLOUDY    36  34  93 CALM      30.00R
WEST JORDAN    CLOUDY    43  37  81 NW8       29.99R

$$

UTZ012>022-026-027-310400-

SOUTHERN/CENTRAL UTAH

CITY           SKY/WX    TMP DP  RH WIND       PRES   REMARKS
BLANDING       CLOUDY    33  33 100 CALM      30.06S
BRYCE CANYON   SNOW      30  29  96 SE5       29.94F WCI  25
CEDAR CITY     CLOUDY    39  37  92 CALM      29.88F
DELTA          CLOUDY    39  38  97 N7        29.94R WCI  34
HANKSVILLE     CLOUDY    41  41 100 S3        30.00S
MILFORD        LGT RAIN  39  36  89 N15       29.92R WCI  31
MOAB/CYNLANDS  LGT RAIN  41  41 100 W3        29.96S
PRICE          LGT RAIN  38  36  92 CALM      29.98S FOG
ST GEORGE      CLOUDY    48  45  87 SW3       29.90R
KANAB          CLOUDY    37  32  81 N10G16    29.96R WCI  30

$$

REGIONAL REPORTS     COLORADO/ARIZONA

CITY           SKY/WX    TMP DP  RH WIND       PRES   REMARKS
CRAIG, CO      CLOUDY    34  31  88 CALM      30.00F
GRAND JUNCTION LGT RAIN  39  38  96 E3        29.96F
RIFLE          LGT RAIN  37  36  96 CALM      29.97F FOG
MONTROSE       CLOUDY    38  36  92 CALM      29.98F
CORTEZ         CLOUDY    37  34  89 SW10      29.98F WCI  30
PAGE, AZ       NOT AVBL
GRAND CANYON   CLOUDY    37  35  92 E5        29.90S WCI  33
KINGMAN        CLOUDY    47  44  90 NE5       29.86S
FLAGSTAFF      CLOUDY    39  37  92 CALM      29.91S

$$

REGIONAL REPORTS    NEVADA/IDAHO/WYOMING

CITY           SKY/WX    TMP DP  RH WIND       PRES   REMARKS
LAS VEGAS, NV  CLOUDY    52  43  71 VRB5      29.83S
ELY            MIX PCPN  35  34  96 N15G23    29.96S WCI  25
ELKO           MOCLDY    39  29  67 N6        30.01S WCI  35
POCATELLO, ID  CLOUDY    34  31  88 SW8       30.10S WCI  27
BURLEY         MOCLDY    34  30  85 W3        30.11F
EVANSTON, WY   CLOUDY    33  27  78 NE8       30.04R WCI  26
ROCK SPRINGS   CLOUDY    30  27  88 NE20      30.05S WCI  17
KEMMERER       CLOUDY    32  27  80 NE17      30.05S WCI  21

$$



USA.gov is the U.S. government's official web portal to all federal, state and local government web resources and services.